Theta_e
361 358 358 355 354 351 347 342 318 324 320 310 312 319 317 330 329 323 324 327 324 331 334 337 337 338 334 331 329 331 332 323 326 312 307 333 346 348 351 351 352 353 353 354 354 356 355 356 359 364 365 365 365 364 365 365 365 366 366 366 367 366 367 367 367 367 367 366 366 366 366 366 366 366 365 365 365 365 365 365 364 364 363 363 362 363 362 362 362 360 362 362 361 361 361 361 360
358 357 357 355 351 347 335 341 319 313 315 311 312 321 320 325 326 322 322 326 327 329 334 336 338 337 336 334 334 332 329 334 336 334 338 344 348 349 353 352 353 352 353 354 355 354 354 355 359 364 365 365 365 364 365 365 365 366 366 366 367 367 367 367 367 366 366 365 366 366 366 366 366 365 365 365 365 365 365 364 364 363 363 363 363 363 362 362 362 363 362 362 361 361 361 361 360
357 356 354 354 348 342 340 337 312 310 308 306 312 318 325 321 321 325 327 328 332 334 337 337 337 336 334 334 328 328 320 338 337 339 338 346 341 345 352 354 354 354 355 355 354 355 357 357 360 364 364 365 364 364 364 365 366 366 366 366 367 367 367 367 367 366 365 365 366 366 366 366 365 365 365 365 365 365 365 364 363 363 363 363 363 363 363 363 362 362 361 362 362 360 360 360 360
357 356 350 348 335 342 330 321 313 310 306 309 312 320 322 321 322 326 329 332 334 336 335 333 329 336 332 327 329 335 332 332 339 338 336 341 342 350 352 354 356 355 355 355 355 356 357 359 363 365 364 364 364 364 364 365 366 365 366 366 366 366 367 368 368 367 366 365 365 366 366 365 365 366 365 365 365 365 364 363 363 363 363 362 364 363 362 361 362 361 361 361 361 360 360 359 360
355 355 352 344 338 329 327 317 315 314 308 310 309 319 323 324 325 328 330 333 334 335 333 332 330 335 336 332 334 327 330 339 340 344 341 347 351 352 353 355 356 355 354 355 356 357 358 362 364 364 364 365 364 364 364 364 366 365 365 366 366 367 367 368 367 367 367 365 366 366 366 366 366 365 365 365 365 364 363 363 363 363 362 362 362 363 362 362 361 360 361 361 361 361 360 360 359
350 347 349 344 330 339 327 314 312 311 315 319 315 317 324 327 327 330 331 334 335 335 334 332 330 330 330 333 337 332 339 329 340 342 345 345 351 354 355 356 355 355 355 356 357 357 358 364 364 364 364 365 364 363 363 365 366 366 365 366 366 366 367 367 367 367 367 366 366 366 367 366 367 366 366 365 364 364 363 363 363 363 362 362 362 362 362 362 362 361 361 361 360 361 361 361 360
341 342 341 341 338 336 316 312 313 315 318 323 319 321 326 329 330 331 330 331 334 335 337 332 335 333 329 335 338 341 346 345 342 343 348 350 353 355 356 355 354 354 356 356 357 357 359 363 364 364 365 364 364 363 364 365 366 366 365 365 366 366 367 367 367 367 366 366 366 367 366 366 366 365 365 364 364 363 363 363 363 363 362 362 362 362 362 361 361 361 360 360 360 360 359 361 361
349 340 338 330 325 323 314 314 316 316 317 324 323 323 328 330 331 330 329 329 327 328 332 335 336 331 330 341 329 343 346 348 348 350 351 352 353 355 355 355 353 354 355 356 357 358 363 363 363 364 364 364 364 364 363 365 365 365 365 365 366 366 367 367 367 366 366 366 367 366 366 366 366 365 365 364 364 364 364 364 363 363 362 362 362 361 361 361 361 361 360 361 361 360 360 360 360
345 342 343 330 318 319 314 313 316 322 321 322 322 329 333 331 332 330 328 330 330 332 332 333 333 325 330 334 333 343 344 349 350 352 352 352 352 354 354 354 353 353 355 356 357 359 360 363 364 363 364 364 363 364 363 364 365 365 366 366 366 365 366 366 367 366 366 366 367 367 366 366 366 364 364 364 363 364 364 363 363 363 363 362 361 360 360 360 360 361 361 361 361 361 360 360 360
342 341 329 324 318 311 310 311 312 314 320 322 325 328 330 332 331 331 328 328 329 332 332 335 336 329 334 330 335 341 342 349 350 350 351 352 353 354 354 354 354 354 355 357 357 359 359 365 364 364 364 364 364 364 364 365 365 365 366 366 366 366 366 366 366 365 366 366 366 366 366 366 365 364 364 363 364 364 364 363 363 362 362 362 361 360 360 359 359 360 360 360 360 360 360 359 359
331 341 339 319 312 308 307 308 310 312 319 323 324 331 332 332 331 330 330 330 332 331 334 337 332 331 333 333 336 347 349 349 347 346 351 353 354 353 353 355 355 355 355 356 357 358 360 361 363 365 365 364 364 365 365 365 365 365 366 366 366 366 366 366 366 366 366 366 366 366 366 366 364 364 363 363 364 364 363 363 363 363 362 361 361 360 360 359 360 360 360 360 359 359 359 359 358
328 331 331 314 309 308 308 308 311 317 321 323 321 329 332 332 332 329 329 327 331 331 331 335 330 336 331 332 334 344 347 347 347 350 352 354 353 353 354 354 355 356 356 356 358 358 359 359 359 364 366 365 365 365 365 365 366 366 366 366 366 366 366 366 366 366 366 366 366 366 365 365 364 363 363 363 364 363 363 362 361 361 361 360 360 361 360 361 360 360 360 360 358 358 359 359 359
334 327 321 314 309 310 312 311 308 320 317 318 321 327 334 332 329 330 330 331 332 330 330 336 337 336 327 330 340 344 344 347 350 351 352 353 353 354 354 354 355 356 356 357 357 358 359 359 360 359 362 365 366 365 366 366 366 367 367 366 366 366 366 366 366 366 366 366 365 366 366 364 364 363 363 364 364 363 364 362 362 362 363 362 361 362 361 362 360 360 359 359 359 359 360 360 359
335 330 320 311 314 311 311 308 313 313 313 320 324 331 333 331 332 332 333 329 330 328 335 339 337 337 332 335 337 338 342 349 350 352 353 353 354 354 353 354 355 355 356 357 356 357 359 359 360 359 359 360 362 365 366 367 367 367 367 366 367 367 367 367 366 366 366 366 365 365 366 365 364 364 364 364 364 364 362 363 363 364 363 363 362 362 361 361 361 360 360 359 359 359 359 359 359
336 332 322 314 310 309 311 307 311 312 313 318 328 330 331 335 334 333 332 329 329 338 340 343 340 334 326 331 331 337 344 348 350 352 352 353 353 353 353 353 354 355 356 356 357 357 357 358 359 360 360 360 360 361 361 364 367 368 367 367 367 367 367 367 367 366 366 365 365 365 366 366 364 364 364 364 364 366 364 363 364 364 362 361 360 360 360 360 360 361 361 360 360 360 360 359 360
343 331 319 312 308 307 308 311 312 310 310 321 329 331 330 332 335 331 333 334 334 339 339 333 342 333 334 334 336 342 347 349 351 352 351 351 352 351 352 352 353 354 355 356 356 357 358 358 358 359 358 359 359 360 361 362 366 367 368 367 367 367 367 367 366 366 366 365 365 365 364 365 364 363 366 363 365 366 366 364 364 364 362 361 361 361 361 362 362 362 361 361 360 361 360 360 360
343 337 322 313 312 310 310 311 312 309 315 323 328 331 327 328 334 335 339 339 333 333 336 338 337 342 337 338 343 347 349 351 352 350 349 349 349 349 349 350 351 352 354 355 356 356 357 357 357 358 358 358 359 360 360 361 364 367 365 367 366 367 367 367 366 366 365 365 364 364 364 361 359 360 361 361 365 364 365 365 364 364 363 361 360 360 361 362 362 362 361 361 361 361 361 361 359
329 321 318 314 317 312 313 312 313 317 318 320 324 330 329 326 330 333 337 334 334 334 334 338 341 341 343 344 347 348 350 350 349 347 347 346 347 346 346 348 349 348 351 353 356 357 357 357 357 357 357 358 359 360 360 361 363 363 362 362 363 363 365 366 364 361 365 359 364 362 358 361 358 356 356 366 361 364 364 366 365 365 364 363 362 361 361 361 361 362 361 361 360 360 361 357 360
332 318 316 317 314 317 318 316 317 316 316 318 324 330 329 327 332 333 328 329 330 330 333 336 336 339 343 345 346 346 348 348 347 346 345 344 345 344 344 346 347 348 349 352 354 356 356 356 356 356 357 358 359 359 360 360 361 360 360 361 362 364 364 364 360 364 357 358 358 358 361 358 357 356 359 363 363 366 366 366 365 365 364 362 364 363 362 361 361 361 360 361 361 360 355 354 354
334 324 314 315 319 318 318 319 318 320 319 319 326 328 329 330 332 334 328 327 330 328 329 333 334 334 338 342 344 345 346 346 346 345 345 344 345 344 344 344 345 346 349 351 352 355 356 355 355 356 357 358 359 358 359 359 359 359 359 359 360 359 360 362 358 359 357 356 357 357 358 357 358 356 366 365 365 363 363 365 364 363 362 362 362 365 367 367 364 365 365 362 364 366 357 356 357
325 325 318 318 319 318 321 322 320 321 322 323 326 327 328 331 332 331 328 326 327 329 334 333 333 336 338 341 343 344 345 345 345 345 344 344 345 345 345 345 345 347 349 352 353 353 354 355 355 355 357 358 358 358 358 358 358 358 358 358 358 357 359 358 357 357 356 356 356 357 357 357 357 357 356 359 358 358 357 358 360 360 359 357 366 357 356 358 360 356 357 361 356 359 360 358 356
322 323 327 325 320 317 321 320 322 321 322 325 325 325 326 332 331 330 329 323 323 329 334 337 338 339 339 340 341 343 343 344 344 344 344 344 343 343 345 345 347 348 350 349 350 353 354 355 355 355 357 357 357 357 357 359 359 357 357 358 357 357 358 357 356 357 356 356 356 357 359 357 356 356 354 355 357 354 356 356 358 357 356 359 360 357 355 355 355 354 354 356 356 354 357 357 354
319 323 322 322 322 319 322 321 321 321 321 322 323 328 330 329 328 331 330 327 330 336 337 339 340 341 342 343 342 341 342 342 343 343 344 343 343 344 345 345 346 346 348 348 351 352 354 355 355 356 356 356 356 356 357 358 358 357 357 357 357 356 356 356 355 356 356 355 356 358 358 355 355 354 354 354 354 354 355 355 354 355 355 356 357 355 355 355 355 353 351 352 352 352 352 352 352
323 319 321 320 320 318 321 321 320 320 320 320 325 330 327 327 323 331 329 329 333 336 339 341 342 343 343 341 342 341 341 342 343 345 345 344 345 345 346 345 347 348 348 348 350 352 354 354 355 355 355 355 355 356 355 356 357 357 357 361 360 358 358 356 356 356 357 356 357 357 361 355 354 354 355 353 354 354 355 355 354 354 354 355 355 354 354 352 352 351 349 349 350 351 353 351 350
320 320 322 322 320 318 317 318 319 320 321 321 324 324 325 327 326 329 327 330 335 337 340 341 342 342 342 341 341 341 341 342 343 345 346 346 346 347 347 347 348 347 347 348 350 351 353 354 355 355 355 355 354 355 354 355 357 357 357 358 358 361 358 357 357 357 356 357 357 358 362 355 354 355 354 354 354 354 354 355 353 353 353 353 353 353 354 352 351 351 351 350 350 350 349 349 350
319 319 320 318 316 317 316 315 317 320 321 320 320 321 325 326 329 327 326 333 336 339 340 340 340 340 340 340 341 341 341 341 343 343 344 346 347 346 346 347 347 346 347 349 350 351 353 354 354 354 354 355 354 355 354 354 356 355 356 357 357 361 358 357 357 356 357 357 357 357 359 357 355 354 354 353 353 353 353 354 354 353 352 352 352 353 353 352 351 350 350 352 349 349 350 349 353
311 311 311 311 312 312 311 312 317 320 320 318 318 319 319 321 327 317 331 334 337 337 338 339 339 338 339 339 340 341 341 341 342 344 344 344 345 345 346 347 347 347 349 348 350 351 353 353 354 355 355 357 355 354 354 354 356 355 356 356 357 357 358 358 357 356 357 357 357 358 357 359 356 355 354 353 353 353 353 352 352 351 350 350 353 354 355 354 351 349 349 347 348 348 347 348 350
313 311 309 308 308 308 309 313 317 320 318 317 318 315 317 322 325 322 330 335 337 335 336 337 338 338 339 340 340 341 341 342 343 343 341 342 343 344 345 345 346 347 348 348 350 352 353 353 353 354 355 356 355 354 355 353 354 355 356 356 356 356 358 356 356 356 358 357 358 357 357 357 362 354 354 353 352 352 352 352 351 349 349 350 355 353 353 354 352 350 350 350 351 348 346 346 347
309 307 303 305 306 305 306 311 318 321 317 316 319 319 316 319 318 326 332 335 336 335 335 336 337 338 339 340 341 341 341 342 343 342 343 344 345 346 345 347 347 347 349 350 350 352 352 352 353 354 355 356 355 353 354 353 354 354 355 355 355 357 357 356 355 356 356 357 357 357 357 357 360 357 353 353 359 352 352 352 350 352 350 352 354 355 355 354 353 351 349 354 347 346 346 343 344
308 306 303 303 302 303 306 314 319 319 317 319 320 305 310 317 321 330 333 334 335 333 333 335 336 337 338 339 339 340 342 342 342 343 344 345 345 346 346 348 349 349 349 350 350 350 353 353 354 354 354 355 355 354 354 353 353 353 356 355 357 356 356 356 357 356 358 357 357 357 357 357 358 357 355 353 353 352 352 352 351 351 352 353 352 353 351 350 351 348 347 346 352 343 337 336 335
302 304 304 298 297 298 303 314 318 317 318 320 319 306 308 315 325 330 333 335 333 331 332 334 335 336 337 338 338 339 341 342 343 344 345 345 346 347 347 348 350 350 350 350 349 350 353 353 354 353 355 354 356 354 354 353 353 352 354 355 355 355 356 356 356 357 356 357 357 356 357 357 358 356 356 355 354 353 352 352 352 352 352 353 352 353 350 351 350 348 349 343 337 335 334 339 336
302 300 296 295 296 298 304 307 318 316 316 318 315 305 309 316 325 330 333 334 333 330 332 333 333 335 336 337 338 339 340 342 343 344 345 345 346 346 347 348 350 350 350 350 350 351 352 352 354 353 354 354 355 354 354 353 354 352 354 358 355 355 355 355 355 356 356 356 357 355 356 357 358 356 356 356 354 353 353 353 353 353 353 354 353 351 350 347 348 348 347 342 336 331 337 335 336
297 299 295 296 295 298 300 303 315 320 316 314 315 304 313 319 326 330 332 332 332 331 331 332 333 334 335 336 337 338 339 340 342 343 344 345 346 347 347 348 350 350 350 350 350 350 351 352 356 353 353 354 354 354 353 353 353 352 353 355 355 355 354 354 354 355 355 355 355 354 355 356 358 357 357 357 356 354 353 354 354 354 355 354 351 348 349 350 347 349 343 344 331 330 333 335 333
294 296 295 296 298 297 296 301 311 317 316 311 313 310 314 321 326 329 331 332 330 330 330 331 332 333 335 335 336 337 337 338 339 341 343 344 345 346 347 351 350 351 351 351 351 350 350 352 353 353 353 354 354 354 353 352 353 353 353 354 357 354 354 354 354 354 353 354 353 353 354 355 358 358 358 358 356 356 355 355 355 355 355 353 349 347 347 349 346 342 339 336 334 330 331 333 333
294 295 295 297 298 297 298 299 308 315 315 313 311 312 315 321 326 328 329 331 330 329 330 331 331 332 333 334 335 336 336 336 338 341 343 343 344 345 346 348 349 350 350 351 350 351 351 351 352 353 353 353 353 353 353 352 352 352 352 352 353 353 353 354 354 352 352 353 353 353 354 355 358 359 359 359 357 358 356 354 354 354 355 352 349 347 343 346 344 340 336 332 336 331 331 332 333
297 297 296 297 295 296 296 301 305 316 311 311 311 310 314 321 324 327 329 330 329 329 330 330 331 332 332 333 333 335 335 336 339 341 342 343 343 344 345 347 348 349 350 350 350 350 350 350 351 351 352 352 352 352 352 351 350 350 349 350 350 352 351 353 352 352 352 352 353 353 354 355 357 359 359 359 357 358 353 352 353 354 353 350 345 342 339 340 339 336 331 330 331 337 336 337 335
300 299 298 297 297 298 301 304 306 315 313 311 312 311 316 321 324 326 328 329 328 328 328 329 330 330 331 331 332 334 335 335 338 339 341 341 342 343 345 346 347 348 348 349 349 349 350 350 350 349 352 352 351 351 350 350 348 348 348 348 348 350 350 351 351 351 351 352 353 353 355 357 358 360 360 359 357 362 355 352 352 352 352 350 345 342 340 339 335 334 334 340 331 332 333 333 334
300 299 297 298 298 298 302 302 305 313 313 310 312 311 315 321 324 326 328 328 326 327 327 328 329 330 331 331 331 332 334 337 337 336 338 340 340 342 343 344 346 344 346 347 348 349 349 350 349 350 352 352 352 351 351 351 350 349 348 348 348 349 349 350 349 350 351 353 353 354 356 358 359 360 361 360 359 358 354 352 351 352 350 348 344 340 336 343 338 332 332 331 334 331 329 334 335
299 298 298 296 298 300 302 304 305 309 313 308 310 310 313 320 324 326 327 327 327 329 329 329 329 329 330 330 331 332 333 333 334 335 336 338 339 341 342 343 344 346 346 347 348 349 349 349 350 350 351 351 352 352 352 350 351 351 350 349 349 348 351 352 351 352 353 352 353 355 357 359 359 360 361 362 359 358 355 352 351 351 350 350 341 336 337 336 330 329 330 332 332 334 334 337 332
298 296 295 295 300 298 296 299 303 306 311 308 309 310 312 319 323 325 327 327 327 329 330 330 330 329 329 330 331 331 332 332 332 333 334 336 338 339 341 342 343 345 345 346 347 348 349 350 349 350 350 351 351 352 354 352 352 352 352 351 350 350 349 352 351 353 352 352 353 356 358 359 360 360 361 361 360 358 355 353 351 349 348 347 338 335 334 333 331 331 330 334 332 330 328 331 340
298 299 298 298 299 298 299 299 302 307 309 312 310 309 309 313 316 319 324 328 327 327 328 329 330 331 332 332 332 333 332 332 332 332 333 335 336 338 340 341 343 344 344 345 347 348 349 349 349 349 350 351 351 353 353 352 353 351 351 350 351 350 352 351 349 348 352 353 353 355 357 360 361 360 361 361 361 357 355 353 350 349 347 343 339 335 333 332 334 333 334 336 331 330 329 330 333
297 299 300 301 301 299 299 300 300 298 296 306 310 301 301 307 314 317 321 323 322 324 324 325 327 328 329 329 330 332 333 334 333 332 333 334 336 338 339 341 341 343 344 345 347 348 348 349 349 349 350 351 351 352 353 352 351 350 348 348 346 345 346 347 346 346 349 351 352 356 358 360 360 360 361 361 361 358 354 353 349 347 344 342 339 335 334 333 333 330 333 336 332 331 333 329 329
294 298 301 301 301 299 299 299 299 293 293 299 312 302 296 305 308 313 317 319 320 321 322 324 326 327 327 328 330 331 332 332 333 333 333 333 335 336 338 340 341 342 344 346 347 348 348 349 349 349 350 350 351 351 353 353 350 350 349 348 348 347 345 347 349 350 350 353 355 356 357 359 360 360 360 361 360 359 354 351 349 346 344 341 342 336 334 334 335 335 335 333 334 340 332 328 328
295 301 300 300 299 299 299 299 298 295 301 302 305 306 298 299 306 312 316 317 317 317 319 322 324 326 326 328 329 330 331 332 332 332 332 333 334 336 336 339 341 342 344 345 346 347 347 347 348 348 350 351 351 351 352 353 350 350 349 349 349 348 347 347 348 349 350 353 355 356 357 358 359 360 360 360 360 358 354 349 348 345 342 339 341 335 335 333 335 336 339 335 335 337 333 331 328
299 302 301 300 299 299 299 298 297 297 297 294 297 301 297 298 305 313 313 312 314 315 317 319 322 324 325 326 329 330 331 332 332 331 332 332 333 335 337 338 341 343 344 344 345 346 347 347 348 348 349 350 351 351 352 352 352 351 350 349 348 349 349 348 349 351 350 353 353 355 356 357 358 358 359 359 359 357 356 349 347 344 342 338 344 335 334 333 334 336 337 336 337 334 332 333 331
301 300 301 301 300 300 299 297 296 297 294 292 296 299 294 292 300 308 311 311 312 314 316 318 321 322 324 326 327 329 331 331 332 332 332 333 334 335 337 339 340 342 344 346 345 346 346 346 346 346 347 350 351 350 352 351 352 352 350 349 348 348 349 348 349 348 349 350 351 353 355 356 356 357 357 357 358 356 355 351 347 344 342 339 344 336 335 333 334 336 338 337 336 335 336 335 332
303 300 300 299 298 299 299 297 296 294 289 292 298 299 298 291 298 307 307 309 312 314 316 318 320 322 323 325 326 328 329 330 331 331 332 333 334 335 336 336 339 341 343 344 344 345 345 345 345 345 347 349 351 350 351 351 351 351 350 349 348 347 348 348 347 347 348 348 349 351 354 355 356 356 356 356 357 355 354 352 348 345 343 344 345 336 335 336 336 337 337 336 336 336 335 333 339
302 296 296 295 294 295 293 294 295 289 286 291 298 298 300 292 293 304 313 316 316 315 314 316 317 319 321 324 326 327 329 330 330 331 331 332 333 334 335 335 337 339 341 341 342 343 344 344 345 344 345 348 350 350 351 351 351 351 351 350 349 349 348 348 347 348 348 348 349 349 352 354 354 355 355 355 354 355 353 351 350 346 344 341 341 337 336 338 338 337 336 336 335 336 334 338 334
299 295 293 291 284 289 287 289 287 288 287 291 296 297 296 296 298 306 312 316 317 317 317 317 318 319 320 322 325 326 328 329 330 330 331 331 331 332 333 334 335 337 339 340 341 342 343 343 344 344 344 347 349 350 350 350 350 351 351 350 349 350 349 348 348 348 349 349 349 348 350 351 352 352 353 353 354 353 352 350 348 345 343 341 340 336 335 339 338 336 336 336 334 334 335 335 331
298 295 291 288 285 284 282 284 285 285 289 294 295 298 294 299 303 308 312 316 319 320 320 320 319 319 320 322 324 325 326 328 330 330 331 331 331 332 333 334 335 336 338 340 341 342 342 343 344 344 344 346 348 349 350 350 350 351 351 351 350 350 349 349 349 348 349 350 350 349 349 352 352 352 353 353 354 353 352 351 349 346 345 342 340 337 336 338 337 337 337 336 335 335 334 334 332
298 298 295 293 290 285 282 284 284 286 288 292 296 295 290 297 298 309 313 318 320 321 322 322 322 321 321 322 323 325 325 326 329 330 330 331 332 332 333 334 335 336 337 339 341 342 342 342 343 344 344 346 348 349 350 349 350 351 351 351 351 350 350 349 349 350 349 349 350 349 349 351 352 353 353 354 354 352 351 350 348 346 344 341 341 337 338 338 338 338 338 337 337 336 334 336 332
298 299 299 293 292 292 287 285 285 287 289 290 293 292 297 300 306 312 315 317 319 321 321 322 321 322 321 320 321 323 324 325 327 329 330 331 332 332 333 334 335 336 337 338 340 342 342 342 343 344 345 346 347 349 349 350 350 351 351 351 351 351 351 351 350 350 350 350 350 350 349 350 352 353 354 354 353 352 351 349 349 346 343 341 340 337 336 337 336 336 337 337 336 339 335 335 334
295 296 293 295 296 297 291 294 296 295 291 290 294 296 296 299 305 308 311 314 316 318 319 320 320 321 321 320 321 322 324 324 326 328 329 330 332 332 333 333 334 336 336 337 339 342 342 342 343 343 344 346 347 349 350 350 351 350 350 351 351 350 350 350 350 350 350 350 350 350 350 350 352 353 353 353 352 352 351 349 348 346 342 341 339 338 336 337 336 336 337 336 336 337 337 335 334
293 293 294 297 300 300 294 286 290 289 285 287 291 293 293 298 294 305 308 309 313 315 317 319 319 320 320 321 322 322 323 324 326 327 329 331 332 333 333 334 334 336 336 337 339 341 343 344 343 343 344 344 346 348 349 350 350 350 350 351 351 351 350 350 351 350 351 350 350 350 350 350 350 352 353 353 352 351 350 352 347 346 342 340 340 339 337 336 337 335 335 337 337 337 337 336 336
303 295 300 298 288 290 289 287 287 284 284 285 287 291 293 296 297 303 305 308 310 313 315 317 318 318 320 321 323 323 323 324 324 326 328 329 331 332 333 333 334 336 338 338 339 341 343 344 344 344 344 345 346 348 349 351 351 351 351 351 351 351 351 351 351 351 352 351 350 350 350 350 351 351 352 351 350 350 349 348 347 345 342 340 339 339 338 337 337 335 335 335 336 336 336 335 335
303 299 297 298 294 293 289 292 288 289 283 286 285 290 291 298 298 304 307 308 310 312 313 315 318 319 320 321 323 324 323 323 324 325 327 329 330 332 333 333 333 335 336 338 339 340 342 344 345 345 346 346 347 347 349 349 350 351 351 351 351 352 352 351 351 351 351 351 351 351 350 350 350 352 351 351 350 349 348 347 346 345 343 340 339 339 338 337 337 336 336 335 335 336 336 335 335
298 296 295 295 297 295 297 295 292 289 283 282 284 286 289 294 300 305 308 310 311 312 313 315 318 319 321 322 323 324 325 325 325 325 326 328 329 331 333 334 334 336 337 339 339 339 341 343 344 345 345 345 346 347 348 348 350 350 351 350 350 351 351 352 351 351 351 351 352 352 351 351 351 351 351 351 350 349 348 347 345 344 343 340 339 339 338 337 336 336 335 336 335 335 336 335 335
300 299 296 296 293 291 288 288 291 292 289 284 283 287 290 295 306 308 307 310 312 313 314 315 317 319 321 322 323 324 325 326 326 326 327 328 329 330 332 334 334 335 336 337 339 340 340 342 344 345 346 346 346 348 348 349 349 350 349 350 350 351 352 352 351 351 351 351 352 352 352 352 351 351 351 350 350 349 348 347 345 343 343 341 339 339 339 338 336 336 334 336 335 334 335 335 335
Wind_Speed
12 10 9 7 4 4 4 3 1 1 0 0 1 0 2 1 1 1 2 1 2 3 5 6 5 3 2 1 7 7 7 4 1 6 3 2 7 10 7 10 9 7 7 6 4 5 4 5 6 16 17 17 18 18 18 17 19 18 18 18 18 17 16 16 15 15 15 15 15 14 14 13 13 12 12 12 11 11 11 11 11 10 10 10 9 9 8 8 9 8 8 10 9 9 9 9 9
9 9 7 6 4 4 2 2 1 2 2 2 1 1 2 1 0 2 2 3 1 4 4 6 6 8 8 9 10 6 6 6 2 3 4 6 9 7 7 11 11 10 7 6 6 6 5 6 10 14 16 17 17 18 18 17 17 17 16 17 17 16 16 15 15 16 15 15 14 14 14 13 12 12 12 11 10 10 11 11 10 10 9 9 9 8 8 8 8 8 8 9 9 9 9 9 9
9 8 6 3 3 2 2 1 1 1 2 2 1 2 1 1 3 0 1 3 2 8 8 8 10 7 5 2 6 3 1 4 8 7 6 12 14 7 8 9 10 10 9 6 7 6 6 8 13 14 16 17 17 17 18 17 16 16 16 16 16 16 16 15 15 15 15 15 14 14 14 13 12 12 11 10 10 10 10 10 10 9 9 9 8 8 8 7 7 7 8 8 8 8 8 9 9
8 5 7 5 2 1 3 1 2 1 1 2 0 2 5 6 5 2 2 1 8 9 7 7 4 1 4 6 5 9 6 6 5 11 9 10 6 10 9 10 9 8 7 6 6 5 5 12 14 14 16 17 17 17 17 17 16 15 15 15 16 16 15 15 15 15 15 14 14 13 13 13 12 11 10 10 10 10 9 9 9 8 8 8 8 7 7 6 6 7 7 8 8 8 8 8 8
7 5 4 1 0 1 1 0 0 1 1 3 4 1 3 4 5 6 4 7 7 8 6 4 4 4 6 7 2 1 4 7 8 1 6 5 9 12 11 10 9 8 7 7 7 6 6 14 13 15 16 17 17 17 16 17 15 15 15 15 15 15 15 15 15 14 14 14 13 13 13 12 11 11 10 10 10 9 9 9 8 7 7 7 6 6 6 6 5 6 6 7 7 7 7 7 7
6 4 3 3 1 1 1 2 1 1 5 2 0 2 3 5 9 8 8 6 7 6 4 5 4 5 4 4 2 3 9 7 7 5 8 7 13 14 12 11 9 8 8 7 7 5 6 14 16 16 17 17 17 17 17 16 15 14 15 15 14 15 15 15 14 14 14 13 13 13 13 12 11 10 10 9 9 9 8 8 7 7 6 6 6 5 5 5 5 5 6 6 7 7 6 6 6
6 4 2 2 3 1 2 1 4 3 5 4 1 3 10 8 9 11 10 8 6 9 5 6 11 11 7 3 6 4 2 8 6 6 5 13 14 13 13 10 10 9 8 6 6 6 7 16 17 17 17 17 17 17 16 15 14 14 14 15 14 14 15 14 14 14 14 13 13 12 12 12 11 10 9 9 9 8 8 7 7 6 6 5 5 5 5 5 5 5 5 6 6 7 6 6 6
4 2 3 1 2 2 1 2 4 3 2 6 2 6 10 10 9 9 9 7 6 5 7 7 2 7 5 3 4 3 6 5 9 10 13 15 15 14 12 10 10 11 9 7 5 5 11 17 17 17 16 17 17 17 17 15 15 14 14 14 14 14 14 14 14 14 13 13 12 12 12 11 10 10 9 9 8 8 7 7 6 6 5 5 4 4 4 4 5 5 5 5 5 5 6 5 5
5 0 1 1 2 0 2 3 3 2 3 2 2 9 11 11 10 10 8 4 7 7 7 9 5 7 2 9 5 4 5 11 12 14 14 16 15 15 10 10 11 10 9 8 6 5 9 15 17 17 17 17 17 17 16 16 15 14 13 13 14 14 14 14 14 14 13 13 12 12 11 11 10 10 9 8 8 7 7 6 5 5 5 4 4 4 4 4 4 4 4 4 5 5 4 4 4
3 1 1 1 0 3 2 5 0 3 2 2 8 13 11 10 9 8 11 9 6 8 7 3 3 9 9 9 7 4 5 12 15 13 13 14 15 12 11 10 10 11 9 8 6 6 7 15 18 17 17 17 17 16 16 15 14 14 13 13 14 14 14 14 14 14 13 12 13 12 11 10 10 9 9 8 7 7 6 6 5 5 4 4 3 3 3 3 3 3 3 3 3 4 3 3 3
3 1 2 2 1 2 1 5 2 2 0 1 3 10 12 10 10 8 5 8 7 5 8 12 9 12 8 5 3 4 11 13 14 15 13 13 13 12 11 9 10 11 10 9 7 7 7 8 17 17 17 17 17 16 16 15 14 13 13 13 13 13 14 13 13 13 13 12 12 12 11 11 10 9 9 8 7 7 6 6 5 5 4 4 3 3 3 3 3 3 3 3 3 3 3 2 3
2 2 2 2 2 3 3 2 1 2 0 2 5 9 8 11 10 9 9 12 7 8 7 6 6 10 9 5 3 8 11 12 11 13 13 13 11 11 10 8 10 9 10 9 8 7 7 7 9 14 16 17 16 16 15 15 14 13 13 14 13 13 13 14 13 12 12 12 12 11 11 11 10 9 9 8 7 7 7 6 5 5 4 3 3 2 2 2 2 2 2 2 3 3 2 2 3
2 1 1 0 3 1 2 1 3 3 0 2 6 7 10 13 11 12 9 8 10 10 6 2 14 3 5 3 4 10 11 11 11 14 14 11 10 9 9 9 9 9 9 9 8 7 8 7 7 8 11 17 17 16 15 14 13 13 13 14 14 14 14 13 13 13 12 12 12 11 11 11 10 9 9 8 8 7 7 6 5 5 4 3 2 1 1 1 2 1 3 2 2 2 3 3 2
3 3 3 3 0 2 1 1 1 5 2 4 2 11 11 9 7 12 11 11 11 7 3 14 7 7 9 7 7 8 10 12 14 15 12 11 10 9 10 8 10 9 9 8 8 7 9 8 7 8 9 10 8 13 15 15 14 14 14 13 14 14 14 13 13 13 12 12 11 11 11 10 10 10 9 9 8 7 6 6 5 4 3 3 2 1 1 0 1 1 2 1 2 3 2 2 2
5 1 1 2 3 0 2 4 7 6 6 3 7 13 6 2 12 10 16 14 6 6 10 6 7 7 5 13 9 10 12 15 15 15 13 12 11 10 10 9 9 9 9 8 7 7 8 8 7 7 8 7 7 6 6 10 15 14 14 14 15 15 14 14 13 12 12 12 11 11 10 10 10 10 9 9 8 7 6 6 5 4 3 2 1 1 1 2 1 1 2 1 2 2 2 1 2
5 1 1 2 4 0 4 4 6 7 6 6 10 9 8 7 9 13 7 9 7 9 10 5 6 1 6 5 7 14 16 16 14 14 13 14 12 9 9 9 9 9 8 8 7 7 7 8 7 6 6 7 6 6 6 6 12 15 15 16 15 15 14 13 13 12 12 11 11 10 10 8 8 7 10 7 8 8 7 5 5 5 4 3 2 2 2 3 3 3 2 2 3 2 2 2 1
6 4 3 2 8 3 4 4 7 4 5 9 11 12 9 8 6 3 6 9 18 12 5 4 4 1 12 3 13 15 16 15 14 15 14 10 10 9 8 8 8 8 7 8 7 7 7 8 8 6 7 7 6 6 6 6 9 15 13 15 16 15 14 14 13 13 11 10 9 9 8 4 3 3 5 3 7 3 6 6 6 6 4 3 3 3 3 4 4 5 5 5 4 5 5 2 2
3 4 3 7 9 4 4 3 3 2 11 10 11 12 15 12 6 6 10 4 13 8 5 6 7 7 9 11 13 15 16 15 15 17 11 10 9 9 9 8 9 9 9 8 8 7 7 6 7 7 6 7 6 6 5 5 5 11 7 7 7 9 11 11 9 5 7 3 9 6 3 2 3 3 2 6 3 3 4 7 6 6 6 5 4 4 4 4 4 5 5 2 2 2 6 3 1
7 2 4 10 2 5 0 2 4 1 6 9 11 14 18 14 14 9 9 9 11 10 7 9 9 9 12 13 15 15 16 15 15 15 15 13 12 12 10 9 10 10 9 8 8 9 7 6 6 7 7 7 7 5 5 5 6 6 5 5 5 9 7 7 4 5 3 4 2 3 3 2 2 2 2 3 3 6 5 7 8 7 7 6 5 5 5 4 2 5 3 2 2 3 2 4 2
9 6 6 9 7 3 3 3 4 4 5 10 15 12 13 12 11 8 10 14 9 12 11 9 12 13 14 15 15 15 14 15 15 14 14 13 13 13 13 14 11 11 10 10 9 7 7 7 7 7 8 8 7 6 5 5 4 5 5 4 5 4 4 4 4 3 3 3 3 3 3 2 2 3 5 9 8 4 4 7 8 8 6 5 6 4 5 5 6 6 5 4 4 2 3 3 2
3 7 8 6 2 5 8 8 7 5 4 12 14 10 10 13 11 10 15 12 7 6 15 20 17 18 17 18 17 16 16 16 15 14 14 13 11 9 9 10 10 9 9 8 8 8 9 8 7 7 7 7 7 6 6 6 4 5 4 5 5 4 4 3 4 3 3 3 3 3 3 2 2 4 3 3 3 2 3 3 3 3 2 3 4 3 3 3 3 3 2 3 1 2 3 3 2
0 12 13 9 2 4 11 4 8 3 4 12 11 13 13 9 7 11 20 16 11 13 14 13 21 21 21 20 18 16 17 16 15 15 14 14 14 12 10 8 7 7 8 9 9 9 9 9 8 7 8 8 8 7 7 6 6 5 5 5 4 4 4 4 4 4 4 4 3 3 3 3 3 3 3 3 4 2 3 4 4 3 3 3 2 3 3 3 2 1 2 3 3 2 3 3 2
8 7 8 9 8 8 7 2 6 3 1 9 13 12 11 14 10 15 18 17 15 16 16 15 20 22 21 19 18 17 17 17 17 16 15 14 13 12 11 10 10 10 9 9 9 8 9 9 9 8 8 8 8 6 5 5 5 5 5 5 5 4 4 4 4 4 4 4 4 3 4 4 4 4 3 4 4 2 4 4 4 2 3 4 2 2 3 3 3 3 2 2 2 2 2 3 2
10 9 5 8 5 11 13 10 7 7 10 11 9 11 15 12 11 11 12 1 7 14 15 15 15 17 19 20 18 19 18 18 17 15 15 15 14 13 12 12 9 8 8 9 9 9 9 11 9 9 8 8 7 7 6 6 5 5 5 5 5 5 5 4 5 5 4 5 4 5 4 4 5 4 4 4 4 3 4 3 3 3 4 4 3 2 3 4 4 3 2 1 2 2 2 2 0
9 10 8 11 9 11 12 11 9 11 12 10 10 14 17 18 13 11 10 7 12 15 15 16 16 17 17 19 19 16 15 14 14 13 11 9 11 10 10 8 9 9 10 10 9 9 10 10 10 10 9 9 7 7 7 6 5 5 5 5 5 6 5 5 5 4 5 5 5 5 4 5 4 4 4 4 3 4 4 3 3 4 3 4 3 4 3 4 4 3 3 2 1 2 2 2 1
9 13 10 10 9 10 11 10 11 13 7 10 14 15 16 13 8 12 5 10 14 17 17 17 17 17 17 18 19 18 16 16 15 14 14 11 11 12 12 10 10 11 11 10 10 9 9 10 11 11 10 9 8 7 6 6 6 6 6 6 5 6 6 6 4 5 5 5 5 5 5 5 5 5 4 3 3 4 4 3 3 4 4 4 3 4 4 3 4 3 3 3 1 0 0 2 2
2 4 6 10 12 11 7 8 11 11 9 14 16 14 10 6 12 4 3 13 16 17 18 17 18 18 17 15 15 16 17 17 18 13 12 11 12 12 12 11 11 11 10 11 10 9 9 10 11 11 10 9 8 8 7 7 6 6 6 6 5 6 6 5 5 5 5 5 5 5 5 4 4 4 4 4 4 4 4 4 4 4 4 5 4 5 3 4 3 3 3 2 2 1 1 1 0
7 7 7 11 12 9 9 9 12 8 5 13 15 9 7 9 9 12 12 16 19 20 18 18 17 16 15 16 15 13 13 13 13 14 17 15 13 12 13 12 12 11 12 12 10 9 10 12 11 11 11 10 9 9 7 7 7 7 6 6 6 6 6 6 6 5 6 5 5 5 4 4 4 4 4 4 5 4 5 5 5 4 5 4 4 4 3 2 2 2 2 1 1 1 1 1 2
5 5 8 10 7 7 4 6 7 12 5 10 12 9 6 8 11 10 16 17 19 20 19 19 17 15 14 14 13 12 13 14 13 13 15 13 11 11 13 12 12 12 9 11 10 10 12 12 11 12 11 10 10 10 9 8 7 7 7 7 6 6 6 6 6 6 6 5 5 5 5 5 4 5 5 5 4 5 4 4 4 5 5 4 3 2 1 1 0 1 2 1 1 1 0 2 2
1 1 4 7 7 10 7 5 9 14 5 16 15 6 10 11 4 12 15 16 17 18 18 17 14 14 13 14 13 11 11 12 14 13 13 12 12 12 13 13 12 11 9 8 10 12 11 9 9 9 11 11 11 9 8 7 7 7 6 6 6 6 6 6 7 6 6 5 5 5 5 5 5 5 4 4 4 4 4 4 5 5 5 4 2 2 2 1 1 1 1 0 2 1 2 2 3
6 4 1 4 4 9 6 2 7 14 8 18 17 10 8 5 6 14 16 20 22 19 18 18 15 14 13 13 12 13 14 14 15 14 13 12 11 11 13 12 12 11 9 10 12 12 12 11 10 9 11 11 11 10 9 8 7 7 7 6 6 6 6 6 6 5 5 5 5 5 6 5 6 6 5 5 4 5 5 5 5 6 5 3 3 2 2 0 0 1 0 1 2 2 2 2 3
0 3 6 3 5 8 2 5 9 14 2 13 11 2 10 9 12 15 17 18 21 19 18 18 16 15 14 13 13 13 14 13 13 13 14 13 13 11 13 13 13 12 12 12 12 11 12 11 11 10 11 12 11 10 9 8 8 8 7 7 6 6 6 6 6 6 5 5 5 5 5 6 6 6 5 5 5 5 5 5 6 5 3 3 3 2 2 2 1 0 0 1 1 2 2 3 3
1 6 5 4 2 6 7 4 8 18 12 9 14 6 3 1 10 15 16 19 18 18 18 18 18 17 16 14 13 13 12 12 12 13 15 13 12 11 12 13 13 14 13 13 12 12 12 12 12 12 13 13 12 10 9 8 8 8 8 7 7 6 7 6 6 5 5 5 5 5 6 6 6 6 6 5 5 5 5 5 5 4 3 3 3 2 2 2 1 0 1 1 1 2 1 1 2
4 0 5 4 6 2 2 6 3 6 12 11 4 7 11 7 16 16 15 18 17 16 19 19 18 16 16 14 13 13 14 14 15 15 16 15 12 14 13 13 14 14 13 13 13 13 14 12 12 12 11 12 11 11 10 8 8 8 7 7 6 7 7 6 6 5 5 5 5 6 6 6 6 6 5 5 5 5 5 5 4 4 3 3 3 2 2 2 1 2 1 1 1 2 1 0 2
6 4 4 7 2 4 5 2 1 5 8 13 5 6 8 6 17 18 18 18 18 19 18 19 18 16 15 15 14 15 15 16 17 16 17 16 15 15 14 14 14 14 12 14 13 12 11 11 11 12 11 12 11 10 9 8 7 6 6 6 6 7 6 6 6 6 6 5 6 7 6 6 6 6 5 5 5 5 5 4 4 3 3 4 3 3 2 1 2 1 3 2 0 2 2 2 3
4 4 4 3 5 4 3 4 4 9 5 7 7 10 9 11 15 16 15 17 17 16 14 14 15 15 16 15 15 15 15 17 15 15 16 15 14 15 14 13 14 14 13 13 14 13 12 11 10 10 11 11 10 9 8 7 6 7 8 6 6 7 7 7 6 7 6 6 7 6 6 6 6 6 6 5 5 5 5 4 4 3 4 4 4 3 2 4 4 3 3 3 1 0 1 0 1
3 2 2 7 6 8 2 1 4 5 7 11 9 6 12 16 20 20 18 15 12 12 15 15 15 15 16 15 16 17 17 18 15 15 16 16 16 15 14 13 13 14 14 14 14 15 14 14 12 13 11 10 10 10 9 9 9 8 7 9 10 8 8 7 7 7 7 7 7 7 7 6 6 6 6 6 6 5 5 4 4 3 4 4 4 4 4 5 4 5 4 1 2 0 1 0 0
7 7 5 8 5 10 3 3 4 2 9 8 3 6 11 18 18 18 16 17 18 18 18 17 18 17 17 18 18 18 18 12 13 12 14 15 14 16 15 13 13 15 14 14 16 16 15 14 14 13 10 11 11 11 10 10 9 10 9 9 7 7 7 8 8 7 7 6 7 7 7 7 7 7 6 6 6 6 5 5 4 5 4 4 4 3 3 3 3 3 3 2 1 1 2 2 0
5 7 7 6 11 8 4 3 4 2 5 6 5 8 10 15 18 17 20 23 20 20 23 23 21 19 17 17 18 18 14 13 15 16 16 15 17 17 15 14 15 17 17 16 16 15 15 14 14 12 11 12 12 11 10 11 10 9 9 7 9 6 6 7 7 6 6 7 7 7 7 7 7 7 7 7 6 6 6 5 5 5 4 4 3 3 3 3 3 4 4 4 1 0 1 1 1
6 6 5 9 9 2 7 2 6 7 7 4 7 9 9 8 9 17 20 20 16 19 21 19 20 22 20 21 19 18 17 16 17 17 18 17 16 16 16 15 16 15 15 15 15 16 14 14 13 14 13 13 12 12 13 11 9 7 6 5 6 7 5 4 4 4 6 6 8 7 6 7 7 7 7 7 6 6 6 6 5 5 5 4 6 5 4 4 3 2 3 2 3 1 1 1 1
7 7 7 9 12 7 8 4 3 1 4 5 4 3 1 6 10 10 12 14 11 12 13 12 14 17 21 21 19 19 20 19 18 18 18 17 16 17 18 17 16 16 16 16 16 16 13 17 16 16 14 14 13 13 13 10 8 6 5 3 4 3 2 5 5 5 6 7 7 6 8 7 8 8 7 8 7 7 6 5 5 5 5 5 5 6 5 6 5 4 5 3 3 4 2 1 1
8 8 11 12 12 5 5 3 3 3 5 1 12 3 5 8 15 18 15 12 14 12 14 17 17 16 14 15 18 17 17 19 22 22 21 20 19 18 17 17 17 17 17 17 17 18 16 15 15 14 12 12 12 13 13 11 11 10 8 8 7 7 8 7 10 10 8 8 9 6 6 8 8 7 7 7 7 6 6 6 5 6 5 5 6 6 5 4 4 3 4 4 4 2 5 2 0
6 10 7 11 12 4 4 1 1 3 5 4 9 10 4 4 12 13 12 17 19 12 17 18 17 16 16 16 17 17 18 17 16 17 19 20 20 19 19 18 19 19 19 17 16 17 18 16 16 16 14 13 13 13 14 12 11 10 12 12 12 12 11 9 8 8 9 7 6 7 7 7 8 8 7 7 7 7 6 6 6 6 6 6 5 5 5 5 5 4 3 3 4 3 3 3 4
12 4 3 5 7 6 7 3 5 7 2 4 3 3 5 5 11 14 17 18 19 16 17 18 18 18 18 18 18 18 19 19 19 19 18 20 21 22 22 22 20 21 20 17 16 16 17 17 16 17 14 13 12 12 14 14 13 12 13 13 11 11 11 11 9 8 5 6 7 7 6 7 7 7 7 7 7 7 6 6 7 6 6 6 6 6 6 5 4 2 3 3 3 4 5 6 4
8 1 5 6 6 6 5 5 6 6 5 9 4 5 4 3 6 14 16 16 15 17 19 20 20 20 20 20 19 19 20 20 20 19 20 20 20 21 21 21 22 22 19 17 17 16 17 17 17 16 15 14 12 14 14 15 13 13 13 12 12 11 11 9 6 5 6 6 7 5 7 7 7 7 7 8 8 7 7 7 7 6 6 6 5 6 4 5 5 5 4 3 4 3 4 4 5
10 3 1 5 4 3 4 5 5 2 3 10 10 6 5 6 4 9 9 15 18 20 21 21 21 22 22 20 20 20 18 17 18 21 21 22 22 23 23 23 21 19 18 18 18 16 15 15 15 16 16 14 13 14 15 16 15 13 12 12 13 11 9 6 5 7 6 6 8 8 7 7 7 7 7 7 7 7 8 7 7 8 8 7 6 6 5 4 4 5 6 6 5 5 3 5 6
2 4 6 8 5 2 1 3 3 2 6 10 12 8 8 7 7 12 12 16 18 17 14 15 17 19 20 21 21 20 18 18 17 18 19 21 22 22 21 20 20 18 16 17 17 16 16 16 16 17 18 15 15 16 16 16 15 13 13 13 15 14 12 9 7 7 6 6 8 8 8 8 7 7 7 7 7 7 8 7 7 7 6 6 6 6 6 6 6 5 6 5 6 6 5 4 3
9 2 5 2 9 4 3 2 2 6 9 7 11 11 10 10 6 7 15 19 22 21 22 22 22 23 22 20 19 20 19 19 19 18 18 19 17 17 16 18 18 18 16 16 16 16 16 16 17 19 17 17 15 16 16 16 15 15 14 14 15 14 12 10 11 11 10 10 10 9 7 6 7 7 7 7 8 8 8 7 7 6 7 6 7 6 6 6 6 5 5 6 6 5 4 4 4
7 4 4 8 2 1 7 3 8 10 9 4 6 7 3 14 7 9 14 18 23 22 21 25 25 25 24 22 22 19 18 18 18 18 18 17 18 18 18 18 17 17 17 18 18 17 16 16 18 19 19 18 17 17 17 18 16 16 15 14 14 12 12 11 11 11 10 10 9 9 8 9 7 7 8 9 9 10 8 8 8 8 7 7 7 6 6 6 6 6 6 6 6 6 6 6 6
10 11 7 8 7 7 8 4 1 3 4 5 6 7 10 1 7 13 16 20 22 23 22 21 25 26 25 24 22 19 18 19 19 19 19 18 19 19 20 20 19 18 19 19 19 17 16 16 18 20 21 19 17 17 18 18 18 18 16 15 14 12 12 12 11 10 10 9 9 10 10 10 9 11 10 10 9 9 9 9 9 8 8 7 7 7 7 6 6 7 6 6 6 6 5 5 6
11 5 10 9 5 4 4 2 7 8 7 5 3 5 5 9 6 9 16 19 22 22 24 23 23 24 25 24 21 21 19 18 18 18 19 20 20 21 20 19 19 19 20 20 18 18 17 17 18 20 20 19 18 18 17 18 17 17 16 15 14 11 12 11 11 10 10 10 9 10 10 9 9 10 10 10 8 9 10 8 8 8 8 7 7 7 6 6 6 6 6 6 5 5 6 6 5
7 8 6 8 12 5 5 6 5 4 3 4 3 6 6 8 4 10 14 16 18 20 21 21 18 15 14 12 16 18 19 19 18 19 20 21 21 20 19 18 19 18 20 19 20 18 18 19 19 21 22 20 20 19 18 18 17 15 16 16 15 14 11 10 9 9 8 9 10 10 11 10 10 9 9 8 9 10 9 9 9 9 8 7 7 7 7 7 6 7 6 6 6 4 6 6 5
5 9 13 10 7 8 6 5 1 1 1 10 1 2 4 7 4 6 8 12 16 16 19 18 16 13 13 15 17 19 19 19 19 19 19 21 19 19 19 19 18 18 18 20 20 20 21 20 19 20 20 18 20 20 19 18 17 16 16 16 14 13 13 13 12 12 12 10 10 10 10 11 10 9 8 8 9 9 9 10 9 9 8 7 7 8 8 7 7 7 7 7 7 5 6 7 5
4 9 6 3 4 8 7 7 1 6 8 7 1 9 3 5 8 3 6 8 13 15 18 17 16 13 14 16 17 19 20 21 21 21 21 21 21 21 20 19 20 20 21 22 22 20 20 20 21 22 20 20 19 18 18 17 17 16 16 16 15 14 14 14 13 13 11 10 9 9 8 8 10 10 9 8 9 10 10 10 10 9 8 7 9 8 8 7 7 7 7 7 7 6 6 4 5
16 7 9 12 6 10 3 3 13 8 8 4 4 4 5 10 6 3 7 10 13 12 14 13 14 13 14 16 20 20 20 18 17 19 18 18 18 19 19 20 20 21 22 22 21 21 18 18 19 21 23 23 22 18 18 16 17 14 14 16 16 14 13 13 12 12 11 11 11 10 11 11 9 9 9 9 9 9 10 10 9 9 8 9 8 8 8 7 7 7 7 7 6 6 6 6 6
5 4 8 5 7 8 7 9 2 4 7 1 7 1 10 6 6 10 11 12 13 15 15 17 19 19 18 18 19 18 17 17 18 18 19 19 19 21 21 21 20 20 19 18 19 17 19 20 19 19 19 18 17 18 18 17 16 15 14 13 14 14 13 13 13 12 12 13 12 11 11 10 11 9 9 10 10 11 11 11 10 10 9 9 9 8 8 8 8 8 7 7 6 7 7 7 7
10 6 8 3 3 1 6 1 9 7 4 5 2 6 6 7 7 9 11 12 14 15 17 17 18 18 20 21 20 17 18 18 18 19 19 19 20 20 20 20 20 20 19 18 17 20 21 18 18 19 19 19 19 19 17 16 14 15 15 16 15 14 15 13 13 13 13 13 12 12 11 11 8 10 10 11 11 11 11 11 11 11 10 9 9 9 8 8 8 8 7 7 6 8 8 7 7
12 11 11 10 8 4 10 11 3 3 5 5 3 14 3 8 4 9 10 11 12 12 13 15 15 17 19 19 19 16 17 18 19 19 19 19 19 19 19 18 16 15 15 16 17 17 17 17 19 19 18 18 20 18 17 16 15 15 17 16 16 14 14 13 14 14 14 13 13 12 11 9 11 11 10 11 12 11 11 11 11 11 10 10 10 10 9 8 9 9 8 6 7 8 8 7 6
Wind_Direction
158 157 158 161 161 170 176 195 90 263 106 345 271 182 282 323 223 235 245 137 219 164 175 113 122 89 149 204 105 99 25 130 131 139 215 136 131 133 138 128 130 135 136 140 145 144 146 158 178 141 135 131 131 130 127 128 127 124 125 126 126 126 124 123 124 122 121 122 124 124 124 125 125 122 121 122 124 123 118 115 114 113 112 110 108 107 111 112 108 108 98 95 94 96 93 91 95
156 151 154 162 178 187 191 168 122 32 33 53 296 153 254 254 320 239 221 200 306 146 135 115 91 87 86 113 127 119 38 28 23 85 77 115 119 117 144 139 142 140 145 143 144 144 154 158 169 147 138 135 134 133 131 130 130 127 127 129 128 126 125 125 126 125 127 127 128 128 127 126 126 124 124 125 125 121 118 118 116 114 114 113 111 111 109 109 105 102 104 100 96 96 96 98 96
152 152 148 197 157 227 299 209 84 51 62 80 267 193 110 167 249 232 243 233 96 103 105 95 95 94 136 121 74 13 217 55 98 110 108 135 126 151 147 142 139 139 143 142 148 155 158 167 182 149 141 137 137 136 134 133 131 131 131 130 128 127 127 128 129 130 130 131 131 130 130 129 127 127 128 128 125 122 122 119 118 118 118 117 116 113 113 107 106 107 107 101 101 98 95 95 98
147 156 158 180 116 242 305 45 96 129 98 197 189 199 180 192 222 167 221 165 119 115 117 123 101 14 108 66 98 79 90 107 116 132 132 159 150 143 146 145 138 136 137 145 153 154 152 171 163 149 143 141 141 139 138 135 134 134 134 132 130 129 131 131 131 132 133 134 134 133 131 129 130 131 132 129 126 126 123 121 119 120 120 119 117 116 112 109 109 110 103 98 97 97 96 96 96
146 163 169 239 21 360 336 44 159 93 167 195 170 238 197 187 140 151 136 113 118 126 121 109 85 48 91 107 164 138 159 97 141 187 121 109 123 137 145 144 140 141 147 150 151 154 171 163 153 149 145 144 144 143 142 139 137 138 137 135 133 133 133 133 134 134 135 137 138 135 133 133 134 135 134 133 130 127 126 124 124 125 124 121 117 113 112 111 107 104 100 94 93 94 97 95 93
116 152 217 316 32 299 332 14 335 265 225 153 156 224 134 127 144 150 128 101 90 95 114 90 123 142 58 10 28 95 126 146 151 116 137 138 141 141 144 145 143 145 146 147 152 155 169 160 154 151 149 147 147 147 146 143 141 141 140 138 136 136 136 137 136 136 140 141 141 138 134 135 139 139 139 137 133 130 129 128 131 131 131 126 121 117 112 107 104 95 94 93 92 95 98 96 91
141 140 192 246 266 178 131 176 259 236 282 160 216 141 136 148 148 131 117 94 60 70 68 101 111 106 85 109 77 108 161 113 136 149 138 138 140 141 144 148 146 146 146 148 151 158 164 161 156 154 151 150 150 151 150 147 147 145 143 141 140 140 140 140 139 141 144 144 143 139 136 139 142 142 142 136 135 136 135 136 137 138 134 131 127 121 115 109 101 94 90 89 90 94 103 101 93
169 111 178 156 296 150 258 221 249 180 270 176 201 135 151 150 139 132 128 121 147 113 120 120 70 91 61 45 107 94 109 90 93 105 123 134 145 145 144 146 148 150 150 150 151 158 166 164 159 156 154 154 153 154 153 153 150 148 146 144 144 144 143 143 143 146 147 147 145 139 140 144 145 147 143 142 142 141 141 142 143 141 141 136 129 127 120 111 102 93 86 87 87 87 92 98 93
179 289 97 347 275 239 325 258 254 210 272 238 200 146 152 146 143 135 128 112 109 126 126 126 152 89 173 96 78 98 66 102 105 122 133 138 148 150 151 151 150 151 152 151 152 159 167 166 163 160 157 157 156 156 157 156 154 152 150 148 148 147 146 147 148 149 150 149 144 141 143 148 150 150 147 145 146 146 146 151 152 151 150 146 145 135 125 111 100 92 84 83 83 86 89 95 99
118 308 243 196 105 305 332 298 203 238 198 225 143 147 146 148 142 140 133 139 139 132 129 120 71 116 122 105 114 98 119 116 123 126 136 143 147 150 151 154 152 149 150 151 155 159 167 170 165 163 160 161 160 161 160 157 158 156 153 152 152 150 150 152 152 153 154 152 146 143 147 153 155 153 150 152 152 156 161 162 165 166 163 164 161 147 131 115 101 86 80 72 75 79 86 87 93
114 181 263 359 350 315 248 285 243 292 31 178 153 143 148 147 139 132 135 121 132 125 105 101 84 120 120 97 63 92 123 127 134 142 146 147 149 151 150 151 152 150 148 151 155 161 164 173 164 163 166 164 164 165 163 161 162 160 159 158 156 154 155 156 156 157 156 153 147 148 153 158 160 157 158 160 163 166 171 173 174 179 187 183 172 159 143 129 101 89 86 75 62 80 80 78 81
92 189 155 217 213 187 245 231 296 251 222 114 189 154 160 141 135 133 137 136 128 123 132 139 151 127 91 113 128 129 134 139 140 140 147 147 151 150 149 148 151 153 150 150 154 160 158 171 162 167 167 165 166 166 166 166 166 165 166 164 160 159 160 161 159 160 158 154 150 153 159 161 163 164 166 168 171 178 178 180 187 193 195 198 188 168 160 129 104 84 83 70 35 47 50 64 59
163 174 157 67 243 166 245 238 254 109 11 228 179 157 147 146 159 149 142 121 136 135 169 183 140 151 113 127 123 135 146 150 143 145 148 151 149 150 148 146 149 147 151 152 153 158 160 163 158 170 168 171 165 168 169 170 170 171 170 169 165 164 164 165 162 163 161 156 155 160 163 164 167 172 175 177 181 186 188 191 197 204 206 205 205 208 166 120 89 26 48 54 44 49 25 34 46
167 184 158 253 228 235 224 197 118 119 271 213 160 147 156 152 159 141 131 136 154 155 140 132 132 113 90 113 145 157 159 154 148 149 149 150 150 150 151 145 147 149 153 155 158 159 162 163 164 163 171 162 165 168 171 173 174 174 173 174 170 169 169 167 167 167 163 160 162 165 167 170 173 178 181 185 191 194 197 204 213 220 217 217 220 240 300 34 67 32 31 15 23 50 53 23 23
213 133 272 218 283 34 230 118 177 156 215 203 150 148 154 137 136 145 152 138 161 106 120 111 144 107 209 166 169 175 162 157 154 150 151 150 148 145 144 143 147 151 154 159 159 159 165 163 166 166 163 161 163 168 171 178 176 177 177 178 174 174 171 171 171 170 166 165 168 169 172 175 180 184 189 192 197 203 206 216 228 236 239 241 262 296 322 327 337 332 356 308 328 11 336 332 340
213 249 190 286 263 170 267 170 174 153 209 163 164 131 111 116 146 150 177 141 124 128 141 143 209 211 159 220 154 153 152 152 152 151 148 150 145 138 138 145 149 154 156 159 163 166 164 164 166 168 161 163 163 166 171 175 180 181 179 178 177 176 174 174 175 173 170 171 173 175 177 181 185 192 194 198 204 209 214 220 244 246 250 268 281 296 304 322 308 304 316 319 315 337 308 322 316
199 220 283 282 279 177 250 188 157 195 173 154 156 140 136 147 172 21 106 126 128 155 191 136 207 56 148 130 141 140 146 146 149 150 149 145 143 147 146 149 152 157 163 163 168 169 163 160 163 165 168 164 162 164 169 176 187 181 180 180 179 178 177 178 177 177 175 176 177 180 182 177 189 196 206 204 215 214 220 236 244 254 262 274 288 306 314 308 330 331 339 339 337 340 325 298 299
191 207 194 264 245 260 253 212 200 191 150 161 156 156 137 145 171 122 103 86 121 137 99 88 63 76 115 124 132 142 143 148 154 155 153 148 152 154 158 158 161 168 165 164 171 169 163 164 162 162 163 165 161 164 170 178 181 183 175 182 181 180 181 181 180 176 178 175 183 186 167 175 185 204 229 207 233 225 236 240 251 260 265 279 293 303 311 321 3 352 314 317 22 325 322 345 18
211 220 164 243 201 232 166 284 283 144 167 163 158 160 153 164 142 162 120 141 140 113 100 101 91 98 114 128 140 147 151 151 156 161 160 158 163 165 163 162 168 166 169 167 169 172 168 163 166 167 166 164 163 166 171 179 170 189 173 175 179 183 187 180 172 176 160 174 177 165 166 183 176 219 217 225 209 230 230 246 253 263 270 276 292 303 304 304 272 242 260 291 260 260 271 279 274
207 211 230 242 221 296 253 254 268 251 155 150 153 168 151 150 141 161 144 156 149 145 134 121 133 137 141 141 150 151 152 155 161 163 164 165 169 170 169 170 169 174 171 172 169 169 165 170 172 170 168 166 168 171 170 177 176 175 172 171 177 176 187 168 169 167 162 170 175 168 173 182 193 218 234 224 226 230 249 251 254 260 268 284 289 306 329 316 310 313 308 285 274 250 232 256 264
182 197 219 236 188 238 255 237 250 237 172 149 151 161 135 157 154 157 145 135 181 186 171 156 160 152 151 154 156 158 158 161 163 165 168 168 168 170 173 172 172 169 169 162 165 171 170 172 171 172 169 170 173 174 175 182 176 169 172 173 177 175 172 159 171 163 171 177 181 181 179 189 199 222 251 276 287 257 232 256 276 292 317 310 303 324 311 302 314 328 312 302 272 250 261 266 247
226 217 228 240 261 290 266 218 247 173 227 142 150 158 164 146 153 153 155 159 184 194 193 170 153 153 154 159 161 160 163 165 166 167 173 173 172 169 165 168 166 166 163 170 173 171 174 174 175 172 171 177 179 180 180 182 176 176 176 179 176 173 166 167 171 174 179 188 183 191 182 196 207 223 232 253 260 266 243 243 250 269 288 286 304 292 297 296 287 263 282 270 270 254 247 262 260
242 256 255 248 234 232 269 197 245 181 191 168 165 167 141 164 178 176 168 171 195 181 164 163 158 157 156 152 156 163 164 168 170 172 170 173 174 175 171 173 170 171 175 177 170 174 175 176 177 174 179 178 184 183 177 183 182 182 176 176 171 181 170 169 183 186 190 191 191 193 187 203 211 215 231 236 247 235 239 236 244 250 256 267 274 277 284 283 281 281 276 266 287 276 263 254 252
227 258 255 257 242 250 260 255 220 227 160 206 166 145 159 171 171 187 192 338 142 146 153 153 149 146 150 157 167 168 168 170 173 173 173 175 176 177 174 173 173 168 175 175 175 175 179 181 178 177 183 181 183 184 181 189 180 178 181 184 185 185 175 187 193 192 190 199 198 200 199 194 201 214 228 227 235 223 238 235 242 251 251 253 258 249 262 272 277 276 252 252 266 277 272 275 168
230 250 257 265 258 248 253 259 238 218 208 180 151 163 177 179 173 155 211 139 139 135 138 143 150 153 160 160 165 167 168 169 171 170 171 175 173 171 174 172 172 173 180 178 176 177 183 181 178 182 183 186 184 181 186 188 180 181 181 187 188 192 188 197 195 191 198 203 204 203 198 196 204 214 217 227 219 231 240 244 236 245 247 255 254 258 235 247 260 265 269 274 248 277 323 315 319
227 237 246 261 270 270 262 260 249 217 199 166 155 181 187 185 121 170 172 138 138 135 139 147 152 158 166 170 167 167 172 173 170 171 175 172 171 171 178 178 176 182 185 176 175 182 179 179 182 185 185 185 184 182 189 186 185 185 190 193 189 195 200 197 193 197 204 200 208 202 204 194 200 206 218 221 206 234 235 238 242 244 242 250 246 254 233 224 235 246 258 253 248 321 324 314 328
233 244 247 255 260 267 270 247 240 207 183 172 166 179 178 172 142 224 162 141 136 140 146 153 157 166 168 170 172 171 171 173 175 169 169 173 176 178 177 177 183 184 177 180 180 179 177 178 185 187 187 185 181 188 187 191 184 193 193 192 193 201 199 195 200 201 204 207 209 202 204 202 197 208 213 213 215 223 229 227 235 240 255 250 228 238 230 216 209 210 219 257 293 7 353 355 358
237 250 280 279 278 275 259 250 230 172 192 177 162 160 148 181 172 179 164 153 148 147 153 158 163 169 169 172 173 174 174 173 169 172 177 176 181 179 177 180 183 180 181 183 181 175 176 184 184 187 187 185 184 190 188 190 194 196 195 193 200 202 194 197 201 203 207 209 207 206 201 207 205 209 211 212 210 217 225 224 233 227 242 249 227 224 230 194 189 219 258 295 349 60 19 250 240
268 260 286 285 299 291 233 223 205 174 185 157 120 90 158 191 205 175 157 152 152 150 155 162 166 171 171 174 173 176 177 173 176 180 183 181 177 178 179 182 179 181 186 181 176 176 181 182 185 187 186 186 188 190 190 193 194 196 197 199 201 198 198 196 203 205 208 205 205 206 207 203 211 209 212 214 215 209 218 225 232 232 239 240 224 213 197 128 44 350 321 7 14 65 295 342 307
336 295 217 310 327 304 280 219 190 177 175 145 139 170 214 204 199 156 154 153 148 149 159 164 167 170 174 175 179 178 177 176 184 184 181 180 180 179 181 182 181 181 177 177 175 184 181 183 184 184 188 188 190 191 190 191 195 198 200 201 202 198 198 198 206 206 206 201 201 206 209 208 211 215 209 218 216 213 220 223 225 236 237 230 217 200 193 141 160 264 290 48 31 50 21 351 19
272 257 162 241 326 264 307 227 173 184 161 160 168 197 222 220 176 161 161 155 155 161 165 165 167 172 176 179 179 182 185 187 185 181 185 181 179 181 182 179 180 179 175 178 185 184 181 183 182 186 187 189 190 192 192 195 193 196 198 201 202 199 199 204 206 206 204 203 196 206 208 212 215 214 213 213 216 212 217 223 225 228 227 218 210 199 183 157 173 248 343 12 59 12 5 48 40
305 355 268 328 181 275 351 324 175 177 168 179 152 116 200 196 172 170 164 165 160 161 167 168 170 173 177 180 181 184 187 187 187 186 187 184 181 182 183 183 180 181 183 183 182 181 186 184 184 186 185 188 191 192 194 193 193 195 198 200 201 199 201 205 206 208 206 200 199 205 206 213 215 214 212 208 217 211 210 217 221 223 218 206 194 175 139 194 216 226 317 152 74 9 27 0 52
339 192 266 257 197 268 357 289 209 190 155 189 182 187 84 275 180 172 170 166 168 161 169 172 173 175 177 181 183 185 181 189 192 190 188 188 187 185 184 183 183 184 183 184 183 183 187 187 187 188 187 188 189 193 193 192 193 196 199 203 201 197 202 207 210 208 203 202 204 209 207 211 216 212 210 203 205 205 207 214 218 210 206 194 176 165 166 184 180 222 311 96 132 151 80 351 17
262 344 217 210 229 277 266 292 280 200 154 185 176 140 194 162 169 175 175 172 168 170 173 175 175 177 179 180 183 183 187 186 193 193 191 190 188 186 185 185 184 185 186 185 186 185 188 187 189 191 188 188 189 191 192 190 193 195 199 204 204 202 205 208 212 203 208 208 202 214 209 209 211 209 206 198 199 195 197 202 204 199 186 170 155 144 196 177 142 145 236 352 99 120 115 56 304
201 227 257 283 260 230 233 269 286 166 195 179 154 155 182 174 168 176 178 179 175 176 176 177 177 177 178 182 184 187 189 190 196 194 190 190 187 186 185 185 185 186 187 186 187 188 187 189 189 192 188 187 189 190 190 188 189 195 199 200 207 209 209 212 210 207 212 207 210 215 208 206 209 203 200 196 192 197 195 199 192 186 168 162 154 164 192 188 150 162 178 243 25 219 152 190 222
209 195 218 256 265 261 184 242 266 162 205 207 159 177 173 165 175 180 181 181 183 182 176 176 180 179 179 183 187 189 191 197 196 192 191 189 187 185 186 185 186 187 186 186 187 188 189 189 191 193 191 186 184 185 185 189 187 192 197 201 209 212 211 209 211 212 208 209 214 210 208 207 205 198 196 193 192 189 192 196 191 175 172 157 157 164 187 177 176 173 198 171 190 15 34 286 245
236 208 214 248 256 276 191 233 259 191 186 211 200 181 169 175 179 183 181 177 182 179 181 184 184 182 183 186 190 192 193 197 190 189 191 190 188 185 185 184 186 186 187 185 186 190 189 189 188 195 191 183 183 185 189 190 192 196 200 201 205 203 205 207 211 211 208 211 210 207 205 205 202 193 193 188 193 190 193 195 182 184 169 166 168 193 191 186 182 176 163 124 154 111 321 338 162
234 244 249 268 237 263 240 198 251 211 179 223 202 172 191 182 184 180 174 177 187 186 186 189 188 188 187 188 191 193 198 193 180 188 193 191 190 187 184 185 183 185 191 188 190 191 190 189 192 193 186 189 191 191 191 193 198 199 195 200 197 198 200 204 211 210 208 208 208 205 204 201 196 194 191 192 189 185 191 193 191 187 171 173 186 184 174 170 156 139 129 104 22 149 227 227 143
233 221 239 260 259 249 279 216 279 292 188 242 168 177 205 193 184 178 179 188 191 188 186 188 185 188 190 192 194 195 190 186 184 191 191 191 189 187 186 187 188 189 187 191 194 190 189 192 195 190 192 190 194 191 190 199 198 198 194 193 192 196 207 207 208 204 197 204 205 204 203 198 192 195 191 190 187 191 192 186 196 181 177 170 155 172 165 171 165 165 158 158 181 52 270 272 114
230 229 222 232 249 200 282 281 209 206 182 199 181 195 215 206 188 186 192 190 195 195 194 190 187 185 189 192 192 192 192 185 187 189 192 192 188 186 188 189 191 190 190 191 189 192 192 195 193 193 193 192 192 194 198 199 196 196 199 184 187 187 190 201 207 202 201 198 207 203 202 193 191 194 190 188 191 191 190 190 186 179 180 176 165 170 176 192 174 164 154 173 134 152 316 291 87
239 220 226 237 247 212 211 245 3 319 255 214 132 120 68 169 184 207 213 207 204 201 199 204 204 199 193 194 193 190 187 186 188 189 192 191 188 189 190 192 187 189 191 192 191 192 194 195 194 193 192 192 193 194 195 188 184 179 176 153 155 174 131 173 181 210 204 202 198 196 200 191 193 194 191 190 188 192 190 183 182 187 175 179 170 171 178 191 190 179 173 161 164 159 216 286 341
257 240 219 236 246 240 243 310 15 14 327 277 145 198 230 199 201 196 193 194 211 200 198 203 203 206 205 199 198 197 197 190 187 187 190 190 191 190 191 189 188 193 194 194 193 194 194 195 193 193 192 192 194 194 190 183 188 185 176 176 178 190 203 189 198 199 196 199 201 190 190 191 191 195 193 193 193 185 188 185 185 182 181 178 181 181 179 174 177 164 185 179 187 206 155 132 21
236 246 194 230 250 242 241 223 74 269 248 277 170 185 253 202 205 205 199 199 206 195 202 205 203 204 202 203 200 196 196 197 200 196 190 188 191 190 191 190 192 193 198 193 193 195 194 192 192 191 193 194 193 191 186 187 190 192 191 195 196 198 203 212 203 197 191 193 179 187 192 188 192 192 196 193 193 188 184 185 186 188 185 182 184 170 177 187 188 191 160 171 193 161 128 142 166
239 236 153 210 241 225 240 205 179 241 246 308 279 198 165 198 216 208 199 200 204 202 206 207 206 205 205 204 201 200 198 195 192 194 195 195 192 191 191 193 193 197 196 190 193 194 193 193 191 192 194 194 191 188 186 189 192 193 195 199 200 202 206 208 198 198 175 169 182 187 182 189 190 194 192 194 193 187 182 187 187 185 184 187 179 181 186 195 180 151 167 196 167 170 168 155 188
244 194 193 246 231 210 224 187 205 224 244 269 238 248 271 240 239 202 195 203 209 210 209 208 208 207 208 206 204 203 202 198 193 192 193 194 196 198 196 195 197 197 191 189 193 193 194 193 191 192 194 194 191 187 187 192 195 194 196 197 201 207 208 207 187 172 167 175 183 181 184 187 190 194 195 193 192 189 186 186 184 185 187 188 184 178 187 177 179 165 158 159 173 191 186 174 147
247 218 240 243 255 209 185 195 180 238 162 241 246 178 220 270 242 181 199 206 205 211 212 210 207 206 207 207 206 204 202 202 200 197 194 194 196 198 198 198 197 197 192 191 192 191 191 190 192 191 196 195 190 189 190 192 196 195 197 199 201 206 203 195 172 180 180 174 186 187 189 187 190 191 196 198 194 194 193 185 183 188 191 185 182 181 175 174 179 170 177 180 180 172 203 167 176
204 156 236 266 282 266 250 194 158 86 228 229 237 218 184 250 236 183 179 207 203 211 218 219 216 214 211 208 205 202 200 199 200 202 200 199 198 198 197 196 199 198 195 193 192 191 189 189 192 193 197 194 191 190 190 193 194 196 199 199 201 203 199 188 182 189 179 179 191 191 191 194 187 193 190 198 199 195 198 190 187 193 187 185 182 175 179 180 184 177 182 179 177 171 177 186 162
209 150 188 277 289 308 314 293 97 216 245 236 222 223 179 229 264 244 198 193 202 200 205 209 212 212 211 209 208 205 200 198 199 199 202 202 201 203 198 200 198 197 194 194 195 192 191 191 191 194 197 195 193 192 192 194 193 197 200 200 203 204 196 193 194 196 189 191 196 195 193 185 191 191 193 196 200 198 197 195 194 188 187 186 191 184 178 178 177 175 173 183 187 183 170 166 157
193 172 148 177 261 128 256 185 234 217 224 246 220 198 239 233 220 196 213 204 202 205 204 206 207 209 209 208 206 203 200 200 198 199 200 199 199 198 197 200 197 196 195 195 194 192 193 193 192 194 198 196 194 191 193 195 194 197 199 201 204 202 197 197 199 202 194 194 196 195 186 194 186 188 200 200 204 195 192 194 193 192 194 193 189 180 182 176 173 176 182 189 182 175 180 172 168
193 192 172 172 199 207 225 241 325 308 293 255 217 181 232 194 239 208 198 206 206 206 211 209 207 206 204 205 204 201 200 198 199 199 199 198 199 198 197 196 194 194 195 194 193 192 192 193 194 196 200 195 194 193 195 195 197 197 197 199 201 197 198 197 200 203 199 198 194 196 194 194 191 198 196 204 199 192 195 198 195 199 196 188 186 187 180 181 178 181 183 187 185 189 176 178 183
208 177 177 199 189 181 203 193 216 228 216 240 223 154 230 191 251 198 202 204 208 207 206 211 210 207 204 202 199 199 198 200 200 200 199 199 200 198 197 196 195 194 194 193 192 193 190 194 194 197 199 197 194 195 195 197 199 199 198 198 198 195 197 196 201 202 200 198 198 196 198 196 195 200 200 202 188 194 197 194 197 198 194 187 185 185 184 182 187 183 182 192 188 178 182 179 187
202 185 168 197 217 126 228 200 162 219 248 272 215 202 187 198 236 197 198 207 209 207 210 215 214 212 206 200 200 202 202 201 200 201 203 203 201 198 198 197 196 195 194 193 193 192 192 195 194 196 197 194 195 195 196 197 199 199 199 197 197 195 194 194 198 201 204 202 201 197 198 198 200 198 200 190 194 192 194 195 197 201 192 186 187 184 185 186 186 184 187 188 196 177 177 184 192
204 144 209 203 142 184 240 289 267 40 13 246 142 296 302 309 325 251 214 201 210 212 217 215 213 206 193 197 202 204 204 202 199 201 201 203 201 200 199 196 196 195 194 195 195 193 193 192 193 197 199 197 196 195 195 196 197 196 200 200 197 194 191 192 195 198 200 201 201 203 200 201 200 198 196 192 191 195 195 195 197 199 189 188 186 189 189 187 183 190 190 190 197 185 178 189 184
123 196 209 149 199 204 181 212 294 216 222 257 173 211 211 171 250 260 198 201 216 209 216 214 212 202 193 202 204 205 204 202 201 201 201 201 199 199 199 199 196 194 194 197 196 194 194 192 193 194 195 197 198 196 197 196 196 197 197 199 200 196 193 194 195 196 198 199 202 204 206 201 201 197 193 192 191 193 196 197 199 197 190 184 192 192 191 187 184 195 196 195 192 175 184 189 190
218 198 175 166 196 211 221 131 227 219 232 256 276 209 227 190 227 197 204 196 210 217 220 219 219 205 205 206 208 208 204 202 201 203 203 203 201 201 201 200 198 197 197 196 196 193 193 195 197 195 196 197 193 194 196 197 196 196 196 197 197 197 196 196 196 195 194 200 203 202 204 206 199 194 191 190 192 194 195 199 200 199 186 190 194 195 189 189 189 194 197 197 187 175 181 192 198
256 100 190 182 131 205 163 203 144 155 247 241 284 118 237 209 212 184 198 204 211 207 209 213 213 205 206 209 209 205 199 201 202 201 202 201 201 201 200 200 197 198 198 198 195 193 195 197 195 198 201 198 195 197 196 196 196 195 197 196 199 198 196 196 195 192 195 200 204 202 205 204 202 195 195 191 192 195 194 197 200 199 192 190 193 197 191 194 191 199 194 193 191 176 184 196 200
209 213 204 213 221 248 187 155 191 200 181 201 217 261 264 249 209 176 194 200 209 206 207 211 215 210 210 211 208 200 197 200 201 200 201 201 201 202 202 201 200 198 196 193 190 193 198 194 196 198 196 196 198 199 195 198 193 198 196 195 195 195 197 197 196 197 199 203 204 203 204 205 194 201 192 193 196 197 196 197 198 200 195 190 195 197 195 195 197 201 200 197 185 185 188 197 197
210 201 212 201 173 150 182 238 7 142 180 222 168 253 276 267 199 185 198 209 209 215 214 221 216 211 211 216 213 199 196 201 200 199 201 200 200 201 201 201 201 196 194 192 195 198 194 194 198 197 198 199 200 196 195 194 195 197 198 196 196 196 196 196 198 198 202 202 204 204 201 197 203 204 193 196 196 196 197 196 200 202 196 194 197 200 196 194 199 202 204 198 195 187 191 194 196